Salinas, CA

3:33 AM PDT on April 30, 2017 (GMT -0700)
Salinas Municipal

Weather History for KSNS - August, 2013

Change the Weather History Date:

Wednesday, August 21, 2013

  Actual Average Record
Temperature  
Mean Temperature 65 °F 64 °F  
Max Temperature 71 °F 73 °F 84 °F (1972)
Min Temperature 59 °F 56 °F 49 °F (1994)
Degree Days  
Heating Degree Days 0 2  
Month to date heating degree days 33 42  
Since 1 June heating degree days 201 233  
Since 1 July heating degree days 103 120  
Cooling Degree Days 0 1  
Month to date cooling degree days 13 18  
Year to date cooling degree days 60 64  
Since 1 June cooling degree days 50 48  
Growing Degree Days 14 (Base 50)    
Moisture  
Dew Point 54 °F    
Average Humidity 71    
Maximum Humidity 84    
Minimum Humidity 57    
Precipitation  
Precipitation 0.00 in 0.00 in 0.01 in (2003)
Month to date precipitation 0.02 0.02  
Year to date precipitation 2.35 8.74  
Since 1 July precipitation 0.02  
Sea Level Pressure  
Sea Level Pressure 29.95 in    
Wind  
Wind Speed 6 mph (WNW)    
Max Wind Speed 16 mph    
Max Gust Speed 22 mph    
Visibility 10 miles    
Events      
T = Trace of Precipitation, MM = Missing Value Source: NWS Daily Summary

Daily Weather History Graph

Daily Weather History Graph

Search for Another Location

Airport or City:

Trip Planner

Search our weather history database for the weather conditions in past years. The results will help you decide how hot, cold, wet, or windy it might be!

Date:

Astronomy

Aug. 21, 2013 Rise Set
Actual Time 6:28 AM PDT 7:49 PM PDT
Civil Twilight 6:01 AM PDT 8:16 PM PDT
Nautical Twilight 5:29 AM PDT 8:48 PM PDT
Astronomical Twilight 4:55 AM PDT 9:22 PM PDT
Moon 8:04 PM PDT (8/21) 7:12 AM PDT (8/21)
Length of Visible Light 14h 14m
Length of Day
13h 20m
Full, 99% of the Moon is Illuminated
Aug 21
Full
Aug 28
Last Quarter
Sep 5
New
Sep 12
First Quarter
Sep 19
Full

Hourly Weather History & Observations

Time (PDT) Temp. Dew Point Humidity Pressure Visibility Wind Dir Wind Speed Gust Speed Precip Events Conditions
12:53 AM 60.1 °F 53.1 °F 78% 29.95 in 10.0 mi Calm Calm - N/A   Overcast
1:53 AM 60.1 °F 53.1 °F 78% 29.94 in 10.0 mi NE 4.6 mph - N/A   Overcast
2:53 AM 59.0 °F 53.1 °F 81% 29.94 in 10.0 mi ENE 4.6 mph - N/A   Overcast
3:53 AM 60.1 °F 53.1 °F 78% 29.94 in 10.0 mi SSE 3.5 mph - N/A   Overcast
4:53 AM 60.1 °F 53.1 °F 78% 29.94 in 10.0 mi Calm Calm - N/A   Overcast
5:53 AM 59.0 °F 53.1 °F 81% 29.95 in 10.0 mi Calm Calm - N/A   Overcast
6:53 AM 59.0 °F 53.1 °F 81% 29.96 in 9.0 mi Calm Calm - N/A   Overcast
7:53 AM 60.1 °F 53.1 °F 78% 29.97 in 9.0 mi Calm Calm - N/A   Overcast
8:53 AM 61.0 °F 54.0 °F 78% 29.98 in 9.0 mi Calm Calm - N/A   Overcast
9:53 AM 62.1 °F 54.0 °F 75% 29.98 in 9.0 mi Calm Calm - N/A   Overcast
10:09 AM 62.6 °F 53.6 °F 72% 29.95 in 9.0 mi NW 4.6 mph - N/A   Overcast
10:53 AM 64.9 °F 54.0 °F 68% 29.98 in 10.0 mi West 6.9 mph - N/A   Partly Cloudy
11:53 AM 66.9 °F 54.0 °F 63% 29.98 in 10.0 mi West 9.2 mph - N/A   Clear
12:53 PM 70.0 °F 54.0 °F 57% 29.96 in 10.0 mi NW 9.2 mph - N/A   Clear
1:53 PM 70.0 °F 54.0 °F 57% 29.95 in 10.0 mi West 11.5 mph - N/A   Clear
2:53 PM 70.0 °F 53.1 °F 55% 29.94 in 10.0 mi West 12.7 mph - N/A   Clear
3:53 PM 70.0 °F 53.1 °F 55% 29.91 in 10.0 mi West 12.7 mph - N/A   Clear
4:53 PM 69.1 °F 54.0 °F 58% 29.91 in 10.0 mi WNW 13.8 mph - N/A   Clear
5:53 PM 66.9 °F 54.0 °F 63% 29.91 in 10.0 mi West 15.0 mph - N/A   Clear
6:53 PM 66.0 °F 55.0 °F 68% 29.93 in 10.0 mi WNW 12.7 mph - N/A   Clear
7:53 PM 63.0 °F 55.0 °F 75% 29.95 in 10.0 mi NW 10.4 mph - N/A   Clear
8:53 PM 62.1 °F 55.0 °F 78% 29.96 in 10.0 mi NW 6.9 mph - N/A   Clear
9:53 PM 62.1 °F 55.0 °F 78% 29.98 in 10.0 mi WNW 4.6 mph - N/A   Clear
10:53 PM 61.0 °F 55.0 °F 81% 29.98 in 10.0 mi West 3.5 mph - N/A   Clear
11:53 PM 61.0 °F 55.0 °F 81% 29.97 in 10.0 mi WNW 3.5 mph - N/A   Clear